Weather Roundup
Issued by NWS

Home | Current Version | Previous Version | Graphics & Text | Print | Product List | Glossary Off
Versions: 1 2 3 4 5 6 7 8 9 10 11 12 13 14 15 16 17 18 19 20 21 22 23 24 25 26 27 28 29 30 31 32 33 34 35 36 37 38 39 40 41 42 43 44 45 46 47 48 49 50

373
NZUS93 KARX 111610
HRRWXR

CURRENT HOURLY OBSERVATIONS ACROSS
MUCH OF THE UPPER MISSISSIPPI VALLEY
NATIONAL WEATHER SERVICE LA CROSSE WI
1000 AM CST THU FEB 11 2016


...SOUTHEAST MINNESOTA...


CITY           SKY/WX    TMP DP  RH WIND       PRES   REMARKS
ROCHESTER      CLOUDY     3  -2  79 SW3       30.29R
ROCHESTER/MAYO FAIR       7  -4  60 NW3       30.31R
WINONA         SUNNY     10   1  67 CALM      30.37S
AUSTIN         CLOUDY     3  -2  78 CALM      30.30R
ALBERT LEA     CLOUDY     9   0  66 CALM      30.29S
DODGE CENTER   CLOUDY    10   1  67 SW3       30.28R
PRESTON        CLOUDY     4  -5  65 W5        30.30R WCI  -6
OWATONNA       CLOUDY     7   0  72 SW3       30.30R
FARIBAULT        N/A      5  -2  72 CALM      30.31R
$$

...ELSEWHERE IN MINNESOTA...


CITY           SKY/WX    TMP DP  RH WIND       PRES   REMARKS
MINNEAPOLIS    CLOUDY     8  -3  61 CALM      30.33S
INTNL FALLS    CLOUDY    -1  -9  68 W6        30.21S WCI -13
DULUTH         PTSUNNY   -1  -9  68 NW6       30.22R WCI -13
RED WING       CLOUDY     7  -6  56 CALM      30.33S
REDWOOD FALLS  CLOUDY     8   4  83 S6        30.30R WCI  -2
MANKATO        CLOUDY     7   1  78 SE5       30.30F WCI  -2
WORTHINGTON    CLOUDY    10   1  67 S8        30.26R WCI  -1
FAIRMONT       CLOUDY     3   0  85 S5        30.29R WCI  -6
$$

...SOUTHWEST WISCONSIN...


CITY           SKY/WX    TMP DP  RH WIND       PRES   REMARKS
LA CROSSE      SUNNY      6  -2  69 CALM      30.36R
PRAIRIE DU CHI SUNNY      8  -3  60 CALM      30.36S
BOSCOBEL       SUNNY     10  -1  61 CALM      30.36S
LONE ROCK      SUNNY      6  -2  69 CALM      30.34F
PLATTEVILLE    SUNNY      7  -1  69 CALM      30.31S
FORT MC COY    SUNNY      4  -5  67 CALM      30.33S
CAMP DOUGLAS   SUNNY      5   0  78 NW5       30.31R WCI  -4
VIROQUA        FAIR       2  -4  73 CALM      30.28S
WIS DELLS      SUNNY      6  -4  65 W6        30.30S WCI  -5
$$

...ELSEWHERE IN WISCONSIN...


CITY           SKY/WX    TMP DP  RH WIND       PRES   REMARKS
MILWAUKEE      SUNNY     12  -1  56 W5        30.30R WCI   4
MADISON        SUNNY      9  -3  58 NW6       30.31S WCI  -1
GREEN BAY      SUNNY      7  -1  70 W8        30.28R WCI  -6
EAU CLAIRE     SUNNY      3  -6  66 CALM      30.31S
BLACK RVR FLS  FAIR       5  -6  60 W3        30.33S
MEDFORD        SUNNY      1  -4  82 CALM      30.22R
WAUSAU         SUNNY      5  -3  69 W8        30.24R WCI  -8
WIS RAPIDS     SUNNY      5  -2  72 CALM      30.29S
MARSHFIELD     SUNNY      2  -6  69 W5        30.25R WCI  -8
RICE LAKE      SUNNY     -3  -8  78 CALM      30.31S
$$

...NORTHEAST IOWA...


CITY           SKY/WX    TMP DP  RH WIND       PRES   REMARKS
WATERLOO       CLOUDY     6  -1  73 CALM      30.35S
DUBUQUE        SUNNY     11   0  61 NE9       30.31S WCI  -2
DECORAH        CLOUDY     5  -6  61 CALM      30.31R
MASON CITY     CLOUDY     3  -2  79 CALM      30.31S
CHARLES CITY   CLOUDY     3  -6  66 CALM      30.33S
OELWEIN        CLOUDY     5  -4  66 CALM      30.34R
$$

...ELSEWHERE IN IOWA...


CITY           SKY/WX    TMP DP  RH WIND       PRES   REMARKS
DES MOINES     CLOUDY    13  -1  54 SE5       30.34F WCI   5
IOWA CITY      SUNNY     15   2  56 E5        30.38S WCI   8
FORT DODGE     CLOUDY     9  -2  61 E5        30.32S WCI   0
MARSHALLTOWN   CLOUDY     6   0  76 CALM      30.34R
CEDAR RAPIDS   SUNNY     13   3  64 E7        30.34R WCI   3
$$

...NORTHERN ILLINOIS...


CITY           SKY/WX    TMP DP  RH WIND       PRES   REMARKS
CHICAGO-OHARE  MOSUNNY   13   0  56 N9        30.32R WCI   1
CHICAGO-MIDWAY MOSUNNY   15   0  51 NW7       30.33R WCI   5
MOLINE         SUNNY     17   1  49 NE5       30.37R WCI  10
ROCKFORD       SUNNY     14   1  56 N6        30.35R WCI   5
PEORIA         SUNNY     18   1  47 W3        30.36R
$$

NOTE: "FAIR" INDICATES FEW OR NO CLOUDS BELOW 12,000 FEET WITH NO
SIGNIFICANT WEATHER AND/OR OBSTRUCTIONS TO VISIBILITY. WIND
SPEEDS ARE IN MILES-PER-HOUR.




USA.gov is the U.S. government's official web portal to all federal, state and local government web resources and services.